Theta_e
307 307 307 307 308 307 308 308 306 304 303 303 302 303 304 304 305 311 309 305 311 313 310 306 307 309 309 310 313 316 320 329 331 331 328 327 326 325 324 325 324 325 324 326 344
308 309 309 310 309 308 307 307 307 305 304 302 302 303 303 307 312 313 309 312 313 310 307 307 310 310 307 309 311 313 318 322 324 327 327 324 323 323 324 323 323 324 324 325 342
309 309 309 309 310 309 308 308 307 306 304 301 302 303 303 311 314 315 313 307 308 309 307 308 310 310 308 309 311 311 316 319 320 319 321 322 321 320 320 321 322 322 323 322 327
309 310 309 309 310 309 310 308 308 306 301 301 303 303 305 314 317 314 310 308 308 310 312 313 310 308 308 309 310 311 312 313 315 316 317 317 318 318 319 319 320 321 322 322 323
305 305 306 307 307 309 310 309 308 304 300 302 304 304 310 314 317 312 310 309 309 312 313 314 311 307 308 307 308 309 310 310 310 310 311 315 317 319 319 319 319 320 321 322 322
307 306 306 306 309 309 309 309 308 304 301 303 306 306 313 309 314 314 311 310 311 314 312 312 309 309 308 309 309 308 309 309 309 310 309 312 313 314 315 316 316 317 319 321 322
309 309 308 309 308 309 309 307 305 302 301 303 306 311 313 306 310 311 310 310 310 311 312 311 310 310 308 308 308 309 308 307 308 309 311 312 312 314 315 316 316 317 317 320 322
309 308 308 308 307 308 307 304 302 301 302 306 309 313 308 308 313 311 310 309 308 309 310 309 309 309 309 308 307 308 305 306 307 308 309 312 312 313 313 313 315 315 316 317 320
308 307 305 306 306 307 303 302 303 304 306 309 311 311 313 315 312 309 309 308 309 309 309 309 309 308 308 307 307 305 307 308 307 307 307 310 310 310 309 311 311 311 312 314 315
306 305 305 306 304 304 302 309 313 312 312 312 312 313 312 315 311 310 309 309 308 308 307 308 304 307 304 306 309 309 309 309 309 309 309 308 309 310 310 310 310 310 310 311 312
304 301 305 306 304 303 305 311 305 306 313 311 315 314 315 314 311 309 309 309 308 306 306 306 304 307 307 307 309 309 310 308 308 308 309 308 309 309 309 309 308 308 309 310 311
300 299 304 306 304 307 306 310 310 309 308 307 309 313 313 313 310 308 309 308 308 307 306 304 306 306 307 308 308 307 307 309 309 312 311 311 311 310 308 308 308 308 309 309 309
298 300 304 306 305 307 308 310 310 310 307 308 310 310 310 309 310 308 308 307 307 306 306 306 307 307 308 307 310 310 312 312 312 312 311 310 310 309 309 308 308 308 308 307 308
301 303 305 305 309 308 309 311 310 308 309 315 310 311 309 308 308 309 309 308 307 306 306 306 306 308 307 307 311 310 312 312 312 312 311 311 310 309 310 309 308 307 306 306 306
303 304 305 306 307 309 311 311 310 310 315 315 310 309 307 307 309 310 309 307 307 307 306 307 308 307 308 309 311 309 312 311 311 311 311 311 311 309 308 309 309 309 309 311 310
305 306 306 309 310 311 310 311 311 314 317 310 310 309 309 308 308 309 309 308 307 307 307 306 307 308 309 311 310 311 310 307 309 309 312 310 310 310 307 307 307 313 313 312 311
308 311 309 306 308 309 311 308 313 314 311 310 309 309 310 310 310 311 310 308 307 307 306 306 307 310 311 310 308 308 306 307 309 310 313 310 312 310 310 311 314 314 312 311 310
310 312 308 306 309 312 309 310 317 311 309 309 309 309 312 311 311 312 310 308 310 308 306 306 309 308 312 309 308 308 307 306 309 311 308 309 313 311 314 313 313 313 311 310 310
313 314 314 314 314 311 306 312 314 312 310 309 309 309 312 311 310 310 310 311 311 309 311 310 311 310 310 309 309 309 311 308 306 311 313 311 311 309 313 313 312 311 311 309 308
310 312 313 314 312 309 308 314 314 311 310 309 310 310 311 311 311 309 310 312 312 311 308 310 312 310 310 310 309 308 307 309 308 315 315 313 312 312 309 310 312 312 310 308 308
309 309 313 311 309 307 310 313 311 310 310 309 309 309 310 312 311 310 310 310 312 312 310 311 310 311 311 310 309 308 309 312 310 313 314 314 312 309 311 312 312 311 310 308 308
304 310 311 310 307 304 309 310 310 310 310 310 308 311 311 311 311 311 309 311 309 311 313 311 310 313 312 311 310 309 309 311 314 313 314 315 314 310 310 308 310 310 310 309 310
303 305 310 308 302 303 305 309 309 309 311 310 310 309 308 309 310 310 311 310 309 309 312 311 309 314 310 309 309 311 312 313 313 313 315 313 311 309 309 310 309 311 311 310 310
303 306 302 300 300 305 306 308 310 310 310 309 309 308 308 309 308 309 309 309 307 308 314 311 309 311 313 311 310 313 312 313 313 316 313 313 311 311 310 310 310 312 311 310 310
298 302 301 300 301 303 304 308 308 309 308 307 307 308 308 308 308 308 308 307 307 309 311 310 314 313 313 312 313 313 314 314 315 313 316 313 312 310 310 309 312 312 312 313 317
301 301 299 300 302 304 304 306 308 307 307 307 307 307 307 306 306 308 306 306 307 308 311 311 313 312 313 312 312 313 314 314 314 314 314 313 313 310 310 310 310 310 310 311 319
301 301 302 300 302 303 302 304 305 305 305 306 305 305 306 306 306 305 305 305 305 307 308 307 310 315 314 313 313 315 315 316 315 315 315 316 313 311 311 311 309 309 309 312 313
Wind_Speed
19 19 19 19 19 18 18 17 17 16 15 16 16 18 20 23 26 15 6 4 2 3 5 10 8 6 2 2 3 1 3 7 9 6 4 9 8 2 6 4 7 4 7 18 10
21 21 20 21 20 20 19 18 17 16 16 15 16 17 20 21 16 10 3 4 5 6 6 4 2 3 2 3 3 4 4 6 2 3 7 20 3 12 9 19 12 11 12 20 8
22 22 22 22 22 21 20 19 17 16 15 14 15 17 18 15 4 5 3 2 3 4 3 2 3 0 3 3 3 3 6 3 3 2 4 9 18 10 11 22 8 10 10 8 2
23 23 23 23 23 23 22 20 18 16 14 13 14 16 13 3 1 3 2 3 4 4 3 2 1 2 2 3 4 4 5 4 2 5 5 13 15 16 16 24 11 6 5 7 9
24 23 23 23 24 24 23 22 20 16 12 11 12 10 4 2 7 4 5 6 7 5 5 1 2 2 1 3 4 4 3 5 6 7 6 10 15 15 27 24 14 11 8 9 10
25 25 25 25 25 25 24 23 20 16 10 9 8 5 1 2 3 6 8 8 9 8 3 4 3 3 2 2 1 3 3 6 3 5 5 7 10 5 25 8 14 10 7 8 10
27 28 27 27 26 26 25 23 19 12 7 6 5 1 1 10 1 2 8 8 8 12 4 8 4 1 4 5 1 3 5 6 4 6 8 8 13 22 21 5 12 14 9 6 9
29 29 29 28 27 26 25 20 13 8 5 3 1 3 6 3 9 7 9 12 8 6 11 6 2 3 2 2 6 4 4 3 5 6 6 6 23 5 7 7 13 11 12 5 6
31 30 31 30 29 26 23 16 12 6 4 5 2 3 7 10 3 6 10 5 6 7 6 7 3 3 3 3 4 5 1 2 7 5 4 6 6 4 8 6 8 8 7 9 5
32 32 31 31 28 24 18 8 7 8 9 4 2 2 6 1 7 7 6 8 2 4 6 6 5 2 4 4 3 5 2 2 5 6 2 11 17 6 7 6 8 7 8 9 11
33 33 31 29 24 16 15 3 5 2 4 6 4 3 5 8 9 4 3 1 3 6 3 3 4 3 6 7 7 4 4 4 5 5 6 7 17 13 7 7 8 8 9 8 10
33 33 30 26 17 9 6 4 1 5 6 7 10 8 18 3 4 9 4 3 1 1 1 5 2 5 4 3 3 1 1 3 4 6 9 13 22 15 5 6 6 8 8 9 9
33 32 27 22 7 6 4 7 16 7 2 7 3 4 5 10 6 7 6 4 3 2 2 4 6 4 2 4 3 2 2 3 5 6 5 8 20 8 3 5 8 7 8 8 8
36 29 24 18 2 7 3 18 11 2 3 4 2 4 2 2 3 8 8 6 2 7 3 4 4 2 4 1 3 3 1 3 6 6 4 4 14 18 13 10 6 8 8 9 11
34 26 18 3 3 1 8 18 8 2 4 2 1 1 3 4 2 3 7 3 8 7 5 9 3 5 1 3 3 5 2 3 3 5 3 3 4 19 5 13 14 11 6 5 7
31 15 8 2 2 5 16 14 2 4 3 3 3 3 3 3 4 5 3 2 2 2 3 7 3 5 4 3 1 1 3 5 4 1 3 7 6 16 3 5 8 4 7 8 7
20 7 3 4 1 11 16 3 4 4 7 4 3 6 5 4 6 4 5 3 1 1 1 1 0 1 2 1 4 5 6 4 4 2 5 4 4 10 16 16 4 5 9 9 7
11 8 4 2 6 12 7 4 6 4 2 2 3 9 3 8 3 7 5 2 7 4 1 2 4 3 0 4 4 4 7 4 5 3 11 6 7 6 5 7 6 8 10 11 11
10 6 4 4 7 10 5 5 4 3 5 4 7 2 3 3 3 6 3 1 2 4 2 2 4 5 6 2 3 2 4 5 3 2 1 5 7 8 8 8 6 8 7 10 12
8 9 5 6 6 5 4 1 2 4 4 1 2 1 2 3 2 5 2 1 2 1 3 4 4 5 2 2 5 6 4 2 2 4 5 5 6 9 8 10 9 11 9 11 11
5 3 5 6 7 5 3 3 4 5 5 3 4 3 2 2 1 2 5 0 1 2 2 2 4 5 2 5 5 2 2 2 2 3 4 6 7 7 10 9 10 13 11 9 15
4 2 12 10 4 1 1 3 5 6 4 4 2 3 4 2 2 3 5 3 5 1 1 2 3 4 7 15 7 6 6 5 4 4 5 3 12 8 12 10 7 14 13 13 16
2 2 5 4 2 3 6 4 3 3 2 4 4 2 5 2 2 5 4 0 6 1 2 4 1 4 6 3 4 3 3 5 4 4 10 5 11 2 6 15 17 15 19 16 10
2 4 4 4 1 2 4 4 5 6 1 1 3 2 4 2 0 4 3 4 9 3 1 3 4 6 9 11 8 18 19 17 11 5 8 13 21 19 19 16 14 15 14 15 10
4 1 1 4 2 4 3 3 4 5 5 4 2 1 3 3 3 6 4 4 5 9 1 7 5 7 13 17 19 22 23 20 18 17 13 16 21 19 18 10 8 12 15 14 13
2 3 4 3 4 5 2 0 3 2 3 5 2 8 5 6 7 14 13 4 6 3 4 1 3 6 17 16 13 15 17 17 17 18 18 20 20 12 5 8 11 14 17 16 11
6 3 1 3 4 3 2 3 5 7 5 3 2 3 7 9 6 12 12 10 8 7 5 4 2 3 5 5 11 7 4 2 2 4 4 7 13 8 14 14 14 18 20 16 12
Wind_Direction
346 344 340 336 333 329 327 325 324 325 325 324 325 328 332 326 320 320 246 222 163 230 278 302 290 273 200 242 220 140 195 225 230 253 302 309 354 190 314 300 322 359 326 337 148
345 343 339 335 332 329 327 324 322 321 321 322 323 328 330 328 323 282 275 202 235 269 282 277 289 6 155 211 221 170 197 217 278 254 314 303 299 305 333 319 305 326 350 352 71
343 340 337 335 333 330 326 323 321 318 318 320 325 329 329 330 313 256 204 198 192 253 231 237 287 222 176 164 228 208 235 142 263 330 335 301 299 312 310 292 290 311 314 340 350
341 338 336 333 330 329 326 321 317 315 316 321 327 330 335 354 200 262 205 198 219 249 289 202 75 88 184 206 246 251 223 202 245 267 282 273 297 287 282 267 298 290 278 291 289
345 341 337 333 329 325 322 318 313 310 316 320 330 336 5 320 253 223 183 198 229 246 250 216 69 112 240 303 334 194 320 338 324 309 272 268 266 272 277 278 290 277 255 245 248
346 341 335 331 327 325 321 316 310 307 311 319 326 332 12 289 246 251 218 212 230 230 257 201 182 218 116 304 130 313 275 282 257 249 242 255 269 245 264 316 302 293 275 235 237
342 341 338 332 328 323 321 315 310 302 300 313 315 175 258 238 125 18 236 247 251 231 232 243 210 94 160 311 230 276 327 346 251 214 215 217 258 241 271 272 278 294 294 256 237
339 341 339 333 330 325 320 319 314 298 283 273 148 166 249 281 312 277 229 264 229 229 217 261 250 123 144 271 350 352 54 38 278 321 263 191 258 320 343 327 291 296 299 303 252
337 340 340 336 334 327 326 328 307 277 229 185 182 181 271 320 257 199 213 234 273 283 296 288 106 158 52 68 357 11 329 311 307 272 278 195 304 354 332 334 312 312 319 322 336
337 340 339 337 338 335 342 7 58 104 117 114 259 312 276 338 302 221 244 246 262 331 10 46 45 104 35 71 272 291 322 261 256 297 307 297 289 298 288 288 284 300 309 315 315
339 340 338 337 340 343 357 79 22 14 187 211 204 251 275 317 331 252 231 320 52 56 18 353 73 206 247 215 239 272 286 292 274 328 342 289 302 308 283 288 288 295 305 308 301
342 340 337 336 340 356 31 65 198 284 307 245 243 235 260 274 310 286 222 151 133 293 21 14 285 214 253 274 209 268 319 321 295 336 339 315 298 302 270 266 266 281 296 299 303
344 338 337 338 339 19 357 13 347 309 13 300 219 212 229 152 221 250 160 177 182 216 196 165 251 313 296 4 38 353 135 301 292 321 276 318 295 298 311 316 288 274 275 303 287
343 338 338 342 98 352 325 343 350 263 58 277 230 265 164 136 255 221 204 164 177 212 216 226 266 259 329 284 123 337 1 316 322 354 302 88 292 289 290 278 258 279 282 287 306
343 339 331 349 328 354 325 339 338 115 55 183 93 311 48 176 306 255 189 97 211 204 122 242 207 306 267 192 168 227 237 275 272 266 275 194 249 283 14 283 272 264 271 316 317
346 340 328 128 261 342 339 332 108 48 33 27 25 13 306 268 262 277 199 105 151 203 246 253 234 145 210 188 228 5 8 339 30 21 308 227 201 290 292 278 313 347 308 296 286
355 5 340 174 341 339 336 36 43 74 315 24 335 328 24 329 358 328 204 58 311 238 290 313 218 130 102 33 352 74 54 330 338 1 238 296 321 258 284 307 215 279 287 279 270
12 29 46 330 339 336 351 57 66 342 24 277 298 313 82 7 28 341 10 123 23 46 79 149 325 173 202 207 214 241 155 164 250 236 282 296 247 252 203 243 251 257 274 287 297
2 8 7 6 332 333 65 58 167 336 295 326 320 320 15 19 336 6 45 26 75 50 90 69 278 315 315 129 106 247 185 195 193 236 282 232 281 293 218 267 270 252 259 272 285
349 339 324 334 332 25 72 214 272 327 312 69 130 331 302 340 39 13 320 18 110 136 150 195 272 254 273 358 279 178 179 282 356 278 246 253 253 246 268 267 282 289 284 290 297
15 32 358 332 318 45 104 257 299 320 4 245 212 253 230 243 245 211 267 149 135 194 67 151 160 278 284 211 211 329 305 123 195 207 240 282 254 218 242 244 255 272 278 282 286
13 38 344 343 39 16 53 282 294 320 341 343 340 208 219 222 248 255 240 217 27 46 138 180 165 256 252 281 274 202 219 168 194 251 236 234 262 241 264 285 279 271 274 276 272
14 269 358 4 86 328 314 298 276 303 348 357 354 43 5 264 280 223 246 14 78 353 215 184 346 321 316 12 6 225 221 199 230 212 234 237 266 295 313 305 296 288 279 264 278
26 357 331 34 38 59 340 284 328 318 141 324 274 64 24 319 102 290 296 294 350 19 326 136 177 192 256 264 280 285 276 264 244 241 260 234 275 271 286 288 304 303 297 269 304
24 8 169 312 339 333 265 281 299 356 330 328 335 198 190 265 287 253 259 311 307 295 8 139 225 233 259 269 275 276 277 272 261 253 248 267 264 283 284 291 314 338 341 327 325
70 20 356 298 307 316 349 310 294 345 273 274 305 325 255 220 219 281 275 215 225 279 130 178 264 314 290 276 263 268 265 258 256 262 264 262 268 269 322 321 335 331 315 311 333
14 22 19 283 326 346 257 9 306 319 282 195 274 294 249 253 270 271 248 233 218 191 163 181 266 259 258 326 314 278 255 273 320 263 297 283 277 337 323 327 328 317 302 303 324